When you browse on this site, cookies collect data to enhance your experience and personalize the content and advertising you see.
Visit our Privacy Policy to learn more. By continuing to use the site, you agree to this use of cookies and data.
  • In Hungary
  • List of Countries
  • For 7 days
  • Water Temperature
  • Satellite Maps
  • Weather Map
  • News
  • Weather Widgets
  • user-avatar
    Login

    Hourly Weather Martos

    Today, 21 November, Wednesday

    Time Temperature Precipitation Wind Pressure Humidity
    00:00 +8°C° 0.1 mm 3 mps 697 mmHg 92%
    01:00 +8°C° 0.1 mm 3 mps 697 mmHg 92%
    02:00 +8°C° 0.1 mm 2 mps 697 mmHg 91%
    03:00 +8°C° 0.1 mm 2 mps 697 mmHg 91%
    04:00 +8°C° 0.2 mm 2 mps 697 mmHg 91%
    05:00 +8°C° 0.2 mm 2 mps 697 mmHg 90%
    06:00 +9°C° 0.2 mm 2 mps 697 mmHg 90%
    07:00 +9°C° 0.1 mm 2 mps 698 mmHg 87%
    08:00 +10°C° 0.1 mm 2 mps 698 mmHg 85%
    09:00 +10°C° 0.1 mm 2 mps 699 mmHg 83%
    10:00 +12°C° 0.1 mm 2 mps 699 mmHg 76%
    11:00 +12°C° 0.1 mm 3 mps 699 mmHg 70%
    12:00 +13°C° 0.1 mm 3 mps 699 mmHg 64%
    13:00 +13°C° 0.2 mm 3 mps 699 mmHg 64%
    14:00 +13°C° 0.2 mm 3 mps 699 mmHg 65%
    15:00 +13°C° 0.2 mm 4 mps 699 mmHg 65%
    16:00 +12°C° 0.3 mm 3 mps 699 mmHg 71%
    17:00 +12°C° 0.3 mm 2 mps 699 mmHg 77%
    18:00 +10°C° 0.3 mm 2 mps 699 mmHg 83%
    19:00 +11°C° 0.1 mm 1 mps 700 mmHg 85%
    20:00 +10°C° 0.1 mm 1 mps 700 mmHg 87%
    21:00 +10°C° 0.1 mm 1 mps 700 mmHg 89%
    22:00 +9°C° 0 mm 1 mps 700 mmHg 90%
    23:00 +9°C° 0 mm 1 mps 700 mmHg 90%

    Tomorrow, 22 November, Thursday

    Time Temperature Precipitation Wind Pressure Humidity
    00:00 +9°C° 0 mm 1 mps 700 mmHg 91%
    01:00 +9°C° 0 mm 1 mps 701 mmHg 91%
    02:00 +9°C° 0 mm 1 mps 701 mmHg 91%
    03:00 +9°C° 0 mm 1 mps 701 mmHg 90%
    04:00 +9°C° 0 mm 1 mps 701 mmHg 90%
    05:00 +9°C° 0 mm 1 mps 701 mmHg 89%
    06:00 +9°C° 0 mm 1 mps 700 mmHg 89%
    07:00 +9°C° 0 mm 1 mps 701 mmHg 84%
    08:00 +10°C° 0 mm 1 mps 701 mmHg 80%
    09:00 +11°C° 0 mm 1 mps 701 mmHg 76%
    10:00 +12°C° 0 mm 1 mps 701 mmHg 70%
    11:00 +13°C° 0 mm 1 mps 701 mmHg 64%
    12:00 +15°C° 0 mm 2 mps 701 mmHg 58%
    13:00 +14°C° 0.3 mm 2 mps 701 mmHg 60%
    14:00 +14°C° 0.3 mm 2 mps 700 mmHg 62%
    15:00 +14°C° 0.3 mm 2 mps 700 mmHg 65%
    16:00 +13°C° 1.7 mm 1 mps 700 mmHg 73%
    17:00 +12°C° 1.7 mm 1 mps 700 mmHg 81%
    18:00 +10°C° 1.7 mm 1 mps 700 mmHg 88%
    19:00 +10°C° 1 mm 1 mps 700 mmHg 89%
    20:00 +10°C° 1 mm 1 mps 700 mmHg 89%
    21:00 +9°C° 1 mm 0 mps 701 mmHg 89%
    22:00 +10°C° 0.3 mm 1 mps 700 mmHg 90%
    23:00 +10°C° 0.3 mm 1 mps 700 mmHg 90%

    Day after tomorrow, 23 November, Friday

    Time Temperature Precipitation Wind Pressure Humidity
    00:00 +10°C° 0.3 mm 1 mps 700 mmHg 90%
    01:00 +10°C° 0.7 mm 1 mps 700 mmHg 91%
    02:00 +9°C° 0.7 mm 1 mps 700 mmHg 91%
    03:00 +9°C° 0.7 mm 1 mps 700 mmHg 92%
    04:00 +8°C° 0.3 mm 0 mps 700 mmHg 92%
    05:00 +8°C° 0.3 mm 0 mps 700 mmHg 92%
    06:00 +8°C° 0.3 mm 0 mps 700 mmHg 92%
    07:00 +8°C° 0.3 mm 0 mps 701 mmHg 89%
    08:00 +9°C° 0.3 mm 0 mps 701 mmHg 86%
    09:00 +9°C° 0.3 mm 0 mps 702 mmHg 84%
    10:00 +11°C° 0 mm 1 mps 702 mmHg 77%
    11:00 +12°C° 0 mm 1 mps 702 mmHg 71%
    12:00 +13°C° 0 mm 1 mps 702 mmHg 64%
    13:00 +13°C° 0 mm 2 mps 702 mmHg 63%
    14:00 +14°C° 0 mm 2 mps 702 mmHg 61%
    15:00 +13°C° 0 mm 3 mps 702 mmHg 59%
    16:00 +13°C° 0 mm 2 mps 702 mmHg 66%
    17:00 +10°C° 0 mm 2 mps 702 mmHg 72%
    18:00 +10°C° 0 mm 1 mps 702 mmHg 79%
    19:00 +10°C° 0 mm 1 mps 702 mmHg 81%
    20:00 +8°C° 0 mm 0 mps 702 mmHg 83%
    21:00 +8°C° 0 mm 0 mps 703 mmHg 85%
    22:00 +7°C° 0 mm 0 mps 703 mmHg 86%
    23:00 +7°C° 0 mm 0 mps 702 mmHg 86%

    24 November, Saturday

    Time Temperature Precipitation Wind Pressure Humidity
    00:00 +7°C° 0 mm 0 mps 702 mmHg 87%
    01:00 +8°C° 0 mm 1 mps 702 mmHg 87%
    02:00 +7°C° 0 mm 1 mps 702 mmHg 87%
    03:00 +7°C° 0 mm 1 mps 702 mmHg 88%
    04:00 +7°C° 0 mm 1 mps 702 mmHg 87%
    05:00 +7°C° 0 mm 1 mps 702 mmHg 87%
    06:00 +7°C° 0 mm 1 mps 702 mmHg 87%
    07:00 +8°C° 0 mm 1 mps 702 mmHg 82%
    08:00 +9°C° 0 mm 1 mps 703 mmHg 76%
    09:00 +10°C° 0 mm 1 mps 703 mmHg 71%
    10:00 +11°C° 0 mm 1 mps 703 mmHg 65%
    11:00 +12°C° 0 mm 1 mps 703 mmHg 59%
    12:00 +13°C° 0 mm 1 mps 703 mmHg 53%
    13:00 +14°C° 0 mm 1 mps 702 mmHg 52%
    14:00 +14°C° 0 mm 1 mps 702 mmHg 51%
    15:00 +14°C° 0 mm 1 mps 702 mmHg 49%
    16:00 +13°C° 0 mm 1 mps 702 mmHg 55%
    17:00 +11°C° 0 mm 1 mps 702 mmHg 62%
    18:00 +9°C° 0 mm 0 mps 701 mmHg 68%
    19:00 +8°C° 0 mm 0 mps 702 mmHg 70%
    20:00 +8°C° 0 mm 0 mps 702 mmHg 72%
    21:00 +8°C° 0 mm 0 mps 702 mmHg 73%
    22:00 +7°C° 0 mm 0 mps 702 mmHg 75%
    23:00 +7°C° 0 mm 0 mps 702 mmHg 76%

    25 November, Sunday

    Time Temperature Precipitation Wind Pressure Humidity
    00:00 +7°C° 0 mm 0 mps 702 mmHg 77%
    01:00 +6°C° 0 mm 0 mps 702 mmHg 78%
    02:00 +6°C° 0 mm 0 mps 702 mmHg 79%
    03:00 +7°C° 0 mm 1 mps 701 mmHg 80%
    04:00 +7°C° 0 mm 1 mps 701 mmHg 81%
    05:00 +6°C° 0 mm 1 mps 701 mmHg 82%
    06:00 +6°C° 0 mm 1 mps 701 mmHg 84%
    07:00 +7°C° 0 mm 1 mps 702 mmHg 78%
    08:00 +9°C° 0 mm 1 mps 702 mmHg 73%
    09:00 +10°C° 0 mm 1 mps 703 mmHg 68%
    10:00 +11°C° 0 mm 1 mps 703 mmHg 67%
    11:00 +10°C° 0 mm 2 mps 703 mmHg 65%
    12:00 +12°C° 0 mm 2 mps 702 mmHg 64%
    13:00 +12°C° 0 mm 2 mps 702 mmHg 66%
    14:00 +13°C° 0 mm 2 mps 702 mmHg 69%
    15:00 +13°C° 0 mm 2 mps 701 mmHg 71%
    16:00 +12°C° 0.1 mm 2 mps 701 mmHg 75%
    17:00 +12°C° 0.1 mm 1 mps 701 mmHg 79%
    18:00 +11°C° 0.1 mm 1 mps 701 mmHg 82%
    19:00 +10°C° 0.1 mm 2 mps 701 mmHg 83%
    20:00 +12°C° 0.1 mm 2 mps 702 mmHg 84%
    21:00 +12°C° 0.1 mm 2 mps 702 mmHg 84%
    22:00 +12°C° 0.4 mm 2 mps 701 mmHg 85%
    23:00 +11°C° 0.4 mm 3 mps 701 mmHg 86%

    26 November, Monday

    Time Temperature Precipitation Wind Pressure Humidity
    00:00 +11°C° 0.4 mm 3 mps 701 mmHg 87%
    01:00 +11°C° 0.7 mm 3 mps 701 mmHg 89%
    02:00 +11°C° 0.7 mm 3 mps 700 mmHg 90%
    03:00 +11°C° 0.7 mm 3 mps 700 mmHg 92%
    04:00 +11°C° 0.3 mm 3 mps 700 mmHg 93%
    05:00 +11°C° 0.3 mm 3 mps 701 mmHg 94%
    06:00 +11°C° 0.3 mm 3 mps 701 mmHg 95%
    07:00 +11°C° 0.1 mm 3 mps 701 mmHg 90%
    08:00 +11°C° 0.1 mm 3 mps 702 mmHg 86%
    09:00 +11°C° 0.1 mm 4 mps 702 mmHg 81%
    10:00 +11°C° 0 mm 3 mps 703 mmHg 71%
    11:00 +12°C° 0 mm 3 mps 703 mmHg 61%
    12:00 +12°C° 0 mm 3 mps 703 mmHg 51%
    13:00 +12°C° 0 mm 3 mps 703 mmHg 48%
    14:00 +13°C° 0 mm 2 mps 703 mmHg 46%
    15:00 +13°C° 0 mm 2 mps 703 mmHg 43%
    16:00 +12°C° 0 mm 2 mps 703 mmHg 48%
    17:00 +11°C° 0 mm 1 mps 703 mmHg 53%
    18:00 +9°C° 0 mm 1 mps 704 mmHg 58%
    19:00 +9°C° 0 mm 1 mps 704 mmHg 60%
    20:00 +9°C° 0 mm 1 mps 704 mmHg 62%
    21:00 +8°C° 0 mm 1 mps 704 mmHg 64%
    22:00 +7°C° 0 mm 0 mps 704 mmHg 64%
    23:00 +7°C° 0 mm 0 mps 704 mmHg 65%
    Show more